Regional Weather Roundup
Issued by NWS

Home | Current Version | Previous Version | Graphics & Text | Print | Product List | Glossary On
Versions: 1 2 3 4 5 6 7 8 9 10 11 12 13 14 15 16 17 18 19 20 21 22 23 24 25 26 27 28 29 30 31 32 33 34 35 36 37 38 39 40 41 42 43 44 45 46 47 48 49 50
000
ASUS43 KBIS 311201
RWRND

NORTH DAKOTA REGIONAL WEATHER ROUNDUP
NATIONAL WEATHER SERVICE BISMARCK ND
600 AM CST SAT JAN 31 2015

NOTE: "FAIR" INDICATES FEW OR NO CLOUDS BELOW 12,000 FEET WITH NO
SIGNIFICANT WEATHER AND/OR OBSTRUCTIONS TO VISIBILITY.


NDZ001>003-009>011-017-311300-
NORTHWEST NORTH DAKOTA

CITY           SKY/WX    TMP DP  RH WIND       PRES   REMARKS
WILLISTON      CLOUDY    21  17  84 NE17      30.20R WCI   7
6HR MIN TEMP:  21; 6HR MAX TEMP:  24;

MINOT          CLOUDY    11   4  73 NE15      30.29R WCI  -5
MINOT AFB      CLOUDY    10   6  86 NE16      30.30R WCI  -7
$$

NDZ018>021-031>035-040>046-311300-
SOUTHWEST NORTH DAKOTA

CITY           SKY/WX    TMP DP  RH WIND       PRES   REMARKS
BISMARCK       CLOUDY    22  20  92 NE16      30.21F FOG     WCI   8
6HR MIN TEMP:  22; 6HR MAX TEMP:  26;

DICKINSON      FOG       22  19  89 E15       30.09F VSB 1/2 WCI   9
GARRISON         N/A     19  17  92 NE8       30.21F WCI   9
6HR MIN TEMP:  19; 6HR MAX TEMP:  24;

HETTINGER ARPT FOG       24  22  91 E14       30.09S VSB 1/4 WCI  12
$$

NDZ004>008-012>016-024-026-027-054-311300-
NORTHEAST NORTH DAKOTA

CITY           SKY/WX    TMP DP  RH WIND       PRES   REMARKS
GRAND FORKS    CLOUDY     7  -1  70 N20G30    30.36R WCI -13
GRND FRKS AFB  FAIR       7   0  73 NE17      30.37R WCI -12
DEVILS LAKE    CLOUDY     7   0  72 N17       30.32R WCI -12
$$

NDZ022-023-025-028>030-036>039-047>053-311300-
SOUTHEAST NORTH DAKOTA

CITY           SKY/WX    TMP DP  RH WIND       PRES   REMARKS
FARGO          CLOUDY    15   7  70 N20       30.29S WCI  -2
6HR MIN TEMP:  15; 6HR MAX TEMP:  26;

JAMESTOWN      CLOUDY    17  11  77 NE16      30.25S WCI   2
$$



USA.gov is the U.S. government's official web portal to all federal, state and local government web resources and services.